Flag for France

Past Weather in Bastia, Corse, France — Yesterday and Last 2 Weeks

Now
57 °F

Passing clouds.


Feels Like: 55 °F
Forecast: 58 / 50 °F
Wind: 9 mph from Southeast

Location: Bastia Airport
Current Time: Sep 26, 2020 at 9:44:09 pm
Latest Report: Sep 26, 2020 at 9:00 pm
Visibility: N/A
Pressure29.56 "Hg
Humidity: 67%
Dew Point: 46 °F
Location of BastiaLocation

Past Weather in Bastia — Graph

°F

Bastia Temperature Yesterday

Maximum temperature yesterday: 77 °F (at 10:30 am)
Minimum temperature yesterday: 61 °F (at 7:00 am)
Average temperature yesterday: 67 °F

High & Low Weather Summary for the Past Weeks

 TemperatureHumidityPressure
High86 °F (Sep 13, 11:30 am)94% (Sep 21, 12:00 am)30.24 "Hg (Sep 21, 12:00 am)
Low59 °F (Sep 26, 4:00 am)29% (Sep 26, 12:00 pm)29.39 "Hg (Sep 25, 7:00 pm)
Average73 °F67%29.95 "Hg
* Reported Sep 11 8:00 pm — Sep 26 8:30 pm, Bastia. Weather by CustomWeather, © 2020

Note: Actual official high and low records may vary slightly from our data, if they occured in-between our weather recording intervals... More about our weather records

Bastia Weather History for the Previous 24 Hours

Scroll right to see more
 ConditionsComfort  
Time TempWeatherWind HumidityBarometerVisibility
8:30 pm
Sat, Sep 26
61 °FPassing clouds.8 mph52%29.56 "HgN/A
8:00 pm63 °FPassing clouds.9 mph45%29.56 "HgN/A
7:30 pm63 °FPassing clouds.5 mph45%29.53 "HgN/A
7:00 pm64 °FScattered clouds.7 mph43%29.56 "HgN/A
6:30 pm64 °FPartly sunny.5 mph43%29.53 "HgN/A
6:00 pm66 °FPassing clouds.8 mph40%29.53 "HgN/A
5:30 pm66 °FPartly sunny.14 mph40%29.53 "HgN/A
5:00 pm66 °FPartly sunny.16 mph40%29.53 "HgN/A
4:30 pm68 °FPassing clouds.20 mph35%29.50 "HgN/A
4:00 pm70 °FScattered clouds.17 mph33%29.50 "HgN/A
3:30 pm72 °FScattered clouds.15 mph29%29.50 "HgN/A
3:00 pm70 °FPassing clouds.17 mph31%29.53 "HgN/A
2:30 pm70 °FScattered clouds.20 mph31%29.53 "HgN/A
2:00 pm70 °FPassing clouds.5 mph38%29.53 "HgN/A
1:30 pm68 °FScattered clouds.13 mph38%29.53 "HgN/A
1:00 pm70 °FScattered clouds.13 mph33%29.50 "HgN/A
12:30 pm72 °FPassing clouds.8 mph29%29.53 "HgN/A
12:00 pm72 °FPassing clouds.9 mph29%29.53 "HgN/A
11:30 am72 °FPassing clouds.9 mph33%29.53 "HgN/A
11:00 am70 °FPassing clouds.13 mph33%29.53 "HgN/A
10:30 am70 °FPassing clouds.6 mph33%29.53 "HgN/A
10:00 am68 °FPassing clouds.15 mph35%29.50 "HgN/A
9:30 am66 °FPassing clouds.13 mph40%29.50 "HgN/A
9:00 am63 °FMild.12 mph49%29.50 "HgN/A
8:30 am63 °FMild.12 mph45%29.50 "HgN/A
8:00 am63 °FMild.15 mph45%29.47 "HgN/A
7:30 am61 °FPassing clouds.12 mph48%29.47 "HgN/A
7:00 am61 °FRefreshingly cool.12 mph48%29.47 "HgN/A
6:30 am61 °FPassing clouds.10 mph52%29.45 "HgN/A
6:00 am61 °FPassing clouds.5 mph48%29.47 "HgN/A
5:30 am59 °FRefreshingly cool.2 mph51%29.47 "HgN/A
5:00 am61 °FPassing clouds.12 mph48%29.45 "HgN/A
4:30 am61 °FPassing clouds.17 mph48%29.45 "HgN/A
4:00 am59 °FPassing clouds.16 mph55%29.42 "HgN/A
3:30 am61 °FPassing clouds.15 mph52%29.39 "HgN/A
3:00 am63 °FPassing clouds.31 mph49%29.39 "HgN/A
2:30 am63 °FPassing clouds.36 mph49%29.39 "HgN/A
2:00 am63 °FPassing clouds.36 mph52%29.39 "HgN/A
1:30 am63 °FPassing clouds.32 mph52%29.39 "HgN/A
1:00 am63 °FPassing clouds.29 mph52%29.42 "HgN/A
12:30 am63 °FPartly cloudy.29 mph52%29.42 "HgN/A
12:00 am63 °FPassing clouds.28 mph52%29.45 "HgN/A
11:30 pm
Fri, Sep 25
61 °FPartly cloudy.26 mph55%29.50 "HgN/A
11:00 pm63 °FPartly cloudy.23 mph49%29.50 "HgN/A
10:30 pm64 °FPartly cloudy.23 mph46%29.47 "HgN/A
10:00 pm64 °FPassing clouds.26 mph49%29.47 "HgN/A
9:30 pm64 °FThundershowers. Partly cloudy.30 mph46%29.47 "HgN/A
9:00 pm66 °FPassing clouds.33 mph43%29.45 "HgN/A
Weather by CustomWeather, © 2020

See weather overview